Wind_Speed
12 14 16 16 16 16 15 15 16 17 19 20 20 20 20 19 19 18 18 18 18 19 20 21 21 22 22 23 23 23 24 24 24 23 23 22 21 20 19 17 16 15 16 16 16 15 15 15 15 15 16 16 17 18 19 19 20 20 19 19 20 20 22 23 25 27 28 27 25 24 23 23 23 22 22 23 25 27 28 28 27 26 25 24 24 24
13 14 14 14 14 15 15 15 15 17 19 20 21 22 22 22 21 20 19 19 18 19 19 19 20 20 20 20 19 19 19 19 20 20 20 20 20 19 18 17 17 17 17 17 17 17 16 15 15 14 15 15 16 17 18 18 19 19 19 19 20 21 22 24 26 27 28 27 26 25 24 24 24 24 24 25 26 27 27 27 26 24 23 23 23 23
14 14 14 14 14 15 15 16 16 17 19 20 21 22 23 23 23 23 22 21 21 20 20 19 19 19 19 18 17 17 16 15 15 15 16 17 17 17 18 18 18 18 18 19 20 20 20 19 18 17 17 17 17 17 18 18 19 18 19 20 21 23 24 24 26 27 27 26 26 25 25 26 26 25 25 25 26 26 26 25 24 23 23 22 22 22
13 14 14 15 15 15 15 16 17 18 19 20 21 22 22 23 23 24 24 24 24 23 22 22 21 20 19 18 17 16 15 14 13 13 13 13 13 14 15 16 17 17 18 19 19 20 20 19 19 19 18 18 19 19 19 19 19 19 20 23 24 24 25 25 25 25 25 25 24 24 25 25 24 24 24 24 24 24 24 24 23 22 22 21 21 20
13 13 14 15 15 15 15 16 17 18 19 20 20 21 21 22 23 24 24 25 25 25 24 24 23 22 21 20 20 19 18 17 17 16 16 15 14 14 14 14 14 15 15 16 16 16 17 17 17 17 18 18 19 19 19 19 19 19 21 23 24 24 24 24 24 24 24 24 24 24 24 23 22 22 22 22 23 23 23 23 23 23 22 21 21 20
13 13 14 14 14 15 16 16 17 17 19 19 20 20 20 21 22 23 23 24 24 24 24 23 23 23 22 22 22 22 22 22 22 22 21 21 20 20 19 18 18 17 17 17 17 17 17 17 17 18 18 18 19 19 18 18 18 19 20 22 23 24 24 24 24 24 24 24 24 23 23 22 21 21 22 22 23 23 23 23 24 24 24 23 22 21
13 13 14 14 14 15 15 16 16 16 17 19 20 21 21 21 21 21 22 22 22 22 22 22 22 22 23 23 24 24 25 25 25 25 25 24 24 24 24 24 23 23 22 21 21 21 21 21 21 21 20 20 19 18 17 17 18 19 20 22 23 24 25 25 25 25 25 25 24 24 23 23 22 22 22 22 23 23 22 23 23 24 24 23 22 21
14 15 14 14 15 15 16 15 15 15 16 18 19 20 21 21 21 20 20 20 20 19 20 21 22 22 23 23 24 25 25 26 26 26 26 26 26 25 25 25 25 24 24 23 23 23 22 22 22 21 20 19 18 17 17 18 19 20 21 23 24 25 25 26 26 26 26 25 25 24 24 23 23 22 22 22 22 22 22 22 22 22 22 22 21 21
14 15 15 15 15 16 17 16 15 15 16 17 18 19 20 21 21 21 20 19 18 18 19 21 22 23 24 24 24 24 25 25 25 26 26 25 25 24 24 23 23 22 22 21 21 21 20 19 19 18 17 17 17 17 18 19 20 21 22 23 24 25 25 26 26 26 26 25 25 25 24 24 23 23 23 22 22 22 23 23 22 21 21 21 20 20
15 16 16 16 15 15 16 17 17 16 17 17 18 18 18 19 20 20 20 19 18 18 19 20 21 22 23 23 23 23 24 25 25 24 24 23 23 22 21 20 20 19 19 19 18 18 17 17 16 16 16 16 17 18 19 19 20 21 22 23 24 25 25 25 25 25 26 25 25 25 25 24 24 24 23 23 23 23 23 23 23 23 22 22 22 22
15 16 16 16 16 15 15 16 17 17 17 18 18 18 16 16 16 18 19 20 20 20 20 20 20 21 22 22 23 23 23 24 24 24 23 21 20 20 19 19 19 18 18 18 18 18 17 17 17 17 18 18 19 20 20 21 22 22 23 24 25 25 25 26 26 26 26 26 26 26 25 25 25 25 24 24 24 24 24 24 25 25 25 25 25 24
15 16 15 16 16 16 16 16 17 17 17 17 17 16 15 15 15 16 18 19 21 21 21 21 20 20 21 22 23 23 22 22 23 23 23 22 20 20 19 20 20 20 20 20 20 20 20 20 20 20 21 22 22 23 23 24 25 25 26 26 26 27 27 27 27 28 28 27 27 27 27 27 26 26 26 26 26 26 26 26 26 27 27 27 27 27
15 15 15 15 15 15 16 16 17 16 16 15 15 15 15 17 17 18 18 19 20 21 21 22 21 21 21 21 21 21 21 22 22 23 23 22 21 21 21 22 22 22 22 23 23 23 22 22 22 22 23 23 24 25 26 26 27 27 28 28 28 29 29 28 28 28 27 27 27 27 27 27 27 27 27 27 27 27 27 28 28 28 28 29 28 28
14 15 15 14 15 15 15 15 15 15 15 15 15 16 18 19 19 19 19 19 20 20 21 21 21 21 20 19 18 18 19 21 22 23 23 23 22 22 22 23 23 24 24 25 25 25 24 24 24 23 23 23 23 24 25 26 27 27 28 28 28 27 27 26 26 25 25 25 25 25 25 26 26 26 27 27 27 28 28 28 28 29 29 29 28 28
14 14 13 13 13 14 14 14 15 15 16 17 18 19 20 20 20 19 18 19 20 20 20 21 21 21 19 17 16 17 18 20 22 22 23 23 23 22 22 23 24 24 24 25 26 26 25 25 24 24 23 23 24 24 25 25 26 26 26 25 25 24 24 23 23 23 23 23 23 23 24 24 25 25 26 26 26 26 26 27 27 27 27 27 27 27
13 12 12 12 12 13 13 14 15 16 18 19 20 20 20 20 19 19 18 18 19 19 19 19 19 18 18 16 15 16 18 20 21 22 23 23 23 22 21 22 24 24 24 25 25 26 26 25 25 24 24 25 25 26 26 26 25 24 24 23 23 23 23 23 23 23 23 23 23 23 23 23 23 23 24 24 24 24 24 24 25 25 25 25 25 26
11 11 11 12 13 13 14 15 16 17 19 19 20 20 20 20 20 19 19 19 19 18 17 16 12 9 12 17 17 15 17 20 21 22 23 24 24 22 21 22 23 24 24 24 25 26 26 25 25 25 25 26 27 27 27 26 25 25 24 24 24 24 24 24 24 24 23 23 23 23 22 22 22 22 23 22 22 23 23 23 24 24 24 24 24 24
10 10 11 12 13 15 16 16 17 17 18 19 19 20 21 20 20 20 20 20 19 18 18 16 13 9 8 13 16 17 17 20 22 22 23 24 24 23 22 22 23 24 24 24 25 25 25 25 25 25 26 27 27 28 28 27 27 27 26 26 25 25 25 24 24 23 23 23 22 22 22 22 21 21 22 22 22 22 23 23 23 23 24 24 24 24
11 11 11 13 14 16 16 16 16 16 17 18 19 20 20 20 21 21 21 21 21 20 19 16 15 14 14 16 19 20 19 21 22 22 22 24 25 24 22 22 23 24 24 24 24 25 25 25 26 26 27 27 28 29 29 29 29 28 27 26 26 25 24 24 24 23 23 23 22 22 22 21 21 21 22 22 22 22 23 23 23 24 24 24 24 25
12 12 12 14 15 16 15 15 15 16 17 19 20 20 19 20 21 21 22 22 21 20 19 17 16 16 17 19 21 21 20 21 21 21 22 24 25 24 21 21 22 23 23 23 24 24 24 25 26 27 27 28 29 29 30 30 30 29 28 27 26 26 25 24 24 24 23 23 22 22 22 22 22 22 22 22 23 23 23 24 24 24 24 24 25 25
12 13 13 14 14 15 16 16 16 18 19 20 21 20 19 20 20 20 20 20 19 18 17 16 17 17 18 20 21 22 21 21 22 22 22 22 23 22 19 19 20 21 21 22 22 22 23 25 26 27 27 28 29 29 30 31 30 29 28 28 27 26 26 25 25 24 24 23 23 22 22 22 22 23 23 23 23 23 23 24 24 24 24 24 24 24
14 14 15 15 15 16 16 17 19 20 21 22 22 21 19 18 19 19 19 17 17 16 16 16 17 19 20 22 23 24 23 22 22 21 20 18 19 19 16 15 16 18 19 20 21 22 23 24 25 26 27 27 28 29 30 30 30 30 29 28 28 27 26 26 25 25 24 24 23 23 23 23 23 23 23 23 23 24 24 24 24 24 24 24 24 24
16 16 17 17 17 17 17 19 20 21 21 21 21 20 19 19 19 19 18 17 17 17 18 19 21 22 23 23 24 24 23 21 21 20 17 13 14 16 14 14 15 18 19 20 21 23 24 24 25 26 27 27 28 29 30 30 30 29 29 28 28 27 27 26 26 25 25 24 24 23 23 23 23 23 23 23 23 24 24 23 23 23 23 23 23 23
17 17 17 17 16 17 18 19 20 21 21 21 21 21 22 22 22 21 21 20 20 20 21 23 23 23 22 22 22 22 20 18 17 17 15 14 15 17 17 17 18 20 22 22 22 23 24 25 25 26 27 28 28 28 29 29 29 28 28 27 27 27 26 26 26 25 25 24 24 23 23 23 23 23 23 23 24 23 23 23 23 23 23 22 22 22
16 16 16 16 17 18 19 21 22 22 22 23 23 23 24 24 23 23 23 22 22 22 22 22 22 21 22 23 22 21 19 16 15 15 15 14 16 19 20 20 20 22 24 24 24 24 26 26 27 27 27 28 28 28 28 28 27 26 26 25 25 25 25 25 25 25 24 24 23 23 23 24 24 24 24 24 24 24 23 23 23 22 22 22 22 22
15 15 16 17 19 20 21 22 22 23 23 23 23 23 23 24 25 25 23 22 21 21 21 19 18 19 21 22 21 21 20 18 17 17 16 16 18 21 22 21 22 24 25 25 25 25 26 27 26 26 27 28 28 28 28 27 26 25 24 24 24 24 24 24 24 24 24 23 23 24 24 24 24 24 24 24 24 24 24 23 23 22 22 22 22 23
16 17 18 20 21 22 22 22 23 23 23 22 22 22 22 23 23 22 20 20 20 19 18 15 13 15 18 18 19 20 20 19 18 18 19 20 20 21 22 22 23 23 24 24 24 25 25 25 25 25 26 28 29 29 27 26 25 24 24 24 24 24 24 23 23 23 23 23 23 23 24 24 24 24 25 25 25 25 25 24 24 23 23 23 23 24
19 21 22 22 23 23 23 23 22 22 21 21 20 20 19 19 19 18 17 17 18 17 15 13 11 11 13 15 18 20 20 19 19 20 22 22 20 20 21 22 22 22 21 22 23 23 23 23 24 24 26 27 26 26 25 24 24 24 24 24 24 24 23 23 23 23 23 23 23 23 24 24 25 26 26 27 27 26 26 25 25 24 24 24 24 25
24 25 26 26 25 23 23 22 22 21 20 19 18 17 16 16 16 16 16 16 16 16 16 16 14 13 14 16 18 20 19 19 19 20 20 18 17 17 19 19 18 18 18 18 20 21 21 21 22 22 23 23 22 23 23 23 23 24 24 25 25 25 25 25 24 24 24 24 25 25 26 26 27 28 28 28 28 27 26 26 25 25 25 25 25 25
28 29 28 27 25 24 23 22 21 20 18 17 15 15 14 14 15 16 16 16 15 15 15 15 15 15 15 16 15 13 13 14 14 14 15 14 14 15 16 16 15 15 14 14 13 13 15 18 19 19 20 20 21 22 23 24 24 25 26 27 28 28 28 29 29 29 29 29 28 28 28 29 29 29 29 28 28 27 26 26 25 25 25 25 25 25
29 28 27 26 25 24 22 21 20 19 17 16 15 14 14 14 14 15 15 15 14 14 15 15 15 15 15 12 8 5 7 13 15 15 16 14 13 13 14 14 15 15 14 12 6 3 8 13 18 21 21 22 22 23 25 26 27 28 29 30 31 31 31 31 32 31 31 31 30 30 30 30 30 29 29 28 27 27 26 25 25 25 25 24 24 25
26 25 24 24 23 23 21 20 20 19 18 17 17 16 15 15 15 15 15 14 14 14 15 15 16 17 17 14 10 8 11 18 19 17 16 14 13 14 14 15 16 17 17 16 13 9 7 7 16 24 25 25 24 24 25 26 28 28 29 29 31 31 31 31 31 31 30 30 29 29 29 29 28 28 28 27 27 26 26 25 24 24 24 24 24 24
23 23 23 23 22 22 21 21 20 20 19 19 18 17 17 16 16 16 16 16 16 17 17 17 17 17 17 17 16 15 17 17 15 14 15 16 16 16 17 18 19 20 20 20 20 19 15 14 19 25 27 27 25 24 25 25 26 26 26 27 28 29 30 29 29 29 29 28 28 28 28 28 28 28 27 27 26 26 25 25 25 24 23 24 24 24
22 22 22 22 22 22 22 21 21 20 20 19 19 18 17 17 16 16 16 17 17 18 18 17 17 17 17 17 18 18 19 19 19 19 19 19 18 18 19 21 22 22 21 20 21 22 21 22 23 23 24 27 27 25 25 25 25 25 25 26 27 28 29 28 28 28 28 28 28 28 29 28 28 28 27 27 26 26 25 25 25 25 25 25 25 26
21 21 21 21 21 21 21 21 20 20 19 19 18 18 17 16 16 17 17 18 18 19 19 19 19 19 19 19 19 20 23 24 24 23 21 20 19 19 20 21 22 22 20 20 20 20 20 22 23 22 22 24 26 27 26 25 25 26 26 26 27 28 28 28 27 27 27 27 28 28 28 28 28 28 28 27 27 26 26 26 27 27 27 28 28 28
20 19 20 20 20 20 20 20 20 19 19 19 18 17 17 17 18 19 20 21 21 21 21 22 22 22 22 22 22 23 24 26 25 24 22 21 21 21 20 21 21 21 20 20 20 19 18 20 23 24 23 22 22 25 26 26 25 25 25 25 26 26 27 27 27 28 28 29 28 28 29 28 28 28 28 28 27 27 28 28 29 29 30 30 30 30
18 18 19 19 18 18 19 19 19 19 19 19 18 18 18 20 21 23 23 24 24 23 23 24 24 24 24 24 24 25 26 26 27 26 25 24 23 23 21 21 21 21 20 20 20 20 20 20 21 22 22 20 19 21 24 25 24 24 24 24 25 26 27 28 28 29 30 30 31 31 30 30 29 29 29 28 28 29 29 30 31 31 30 30 30 30
17 17 18 18 17 17 18 18 19 19 18 18 19 20 22 24 25 25 25 25 25 25 25 25 25 25 25 25 26 27 27 28 28 28 27 26 25 24 22 22 22 21 21 20 20 20 20 17 14 12 13 18 21 23 24 24 23 23 24 24 25 26 28 28 28 29 29 30 31 31 31 30 29 29 29 29 29 29 30 30 31 30 30 29 29 29
16 17 17 17 17 17 18 18 19 19 21 22 24 24 25 25 25 25 25 24 24 25 25 25 25 26 26 26 26 26 26 26 26 26 26 25 25 24 23 22 22 22 22 21 21 21 21 18 14 11 10 15 20 24 25 24 23 23 24 24 25 26 26 25 25 26 26 27 28 29 29 29 29 29 29 29 29 29 29 29 29 29 28 28 28 28
17 17 17 18 17 18 18 19 20 22 24 25 25 25 24 24 23 23 24 24 24 24 23 24 24 25 25 25 25 25 25 25 25 24 24 24 24 24 23 22 22 22 23 22 21 20 20 19 19 20 20 19 21 23 24 25 24 24 23 23 24 25 25 24 24 24 25 26 26 27 27 28 28 28 28 28 28 29 29 28 28 28 27 27 26 26
17 17 18 18 19 19 20 21 22 24 25 25 24 24 23 22 22 23 23 23 23 22 22 22 22 23 24 24 24 23 22 22 22 22 22 23 23 23 24 23 22 22 22 21 20 19 19 20 21 22 23 23 23 25 25 25 25 25 25 23 24 26 27 27 26 25 25 26 27 27 27 26 26 27 27 28 28 28 28 28 28 28 27 27 26 25
17 17 18 19 20 21 22 23 23 22 22 21 21 21 21 21 21 22 23 23 22 21 21 21 21 22 23 24 23 22 21 20 21 21 21 21 22 22 23 24 24 23 22 22 21 22 22 21 21 22 23 23 23 22 23 25 26 25 24 24 25 27 28 28 26 24 24 25 26 26 26 26 26 26 27 27 27 27 27 28 28 28 27 27 27 26
18 18 19 20 21 22 23 22 21 21 21 20 20 20 21 20 21 21 21 21 21 21 21 20 21 22 23 24 24 23 22 21 20 20 21 21 21 21 22 23 24 24 23 22 21 22 23 22 22 22 24 23 22 22 23 25 26 25 25 24 24 22 21 24 25 24 23 24 25 26 27 26 27 27 27 27 27 27 27 27 27 26 26 25 25 25
19 19 20 20 21 21 20 20 20 20 20 20 20 21 21 21 20 20 19 20 21 21 21 20 20 21 21 22 23 24 23 22 21 21 20 20 20 20 21 21 22 23 23 22 21 21 22 22 23 23 23 22 22 23 24 24 25 26 26 25 24 22 21 24 25 26 25 25 26 27 26 26 26 27 26 27 27 27 26 27 26 25 25 25 25 25
19 20 20 20 20 20 19 20 20 20 21 20 20 21 21 21 20 20 20 20 21 21 21 20 19 19 19 20 22 23 24 24 23 22 21 20 20 19 19 21 22 23 23 23 22 21 21 21 23 23 23 22 22 22 23 24 25 26 27 26 25 25 26 27 27 26 26 26 26 27 27 27 26 25 25 26 26 26 26 26 26 26 26 26 25 25
18 19 19 19 20 20 20 20 20 20 21 21 21 21 21 21 21 20 20 20 20 20 20 20 18 18 18 20 21 22 23 24 24 23 22 21 21 21 21 21 22 23 23 23 24 24 24 24 24 24 23 22 23 23 24 25 24 25 26 27 26 26 27 27 26 26 25 25 25 26 27 26 25 25 24 24 25 26 26 25 25 26 26 26 26 26
18 19 19 20 20 20 20 20 20 19 20 20 21 21 21 20 20 19 19 19 19 19 20 19 18 18 18 19 20 20 21 22 23 24 24 23 22 22 22 22 23 24 24 25 26 26 26 26 26 25 23 22 22 23 25 26 25 24 25 26 26 25 25 25 26 25 24 24 25 25 25 24 23 22 22 23 24 25 25 25 25 26 26 26 26 26
18 19 19 20 20 20 20 20 19 19 20 20 21 21 21 20 19 19 19 19 19 19 19 19 19 19 19 20 20 20 20 21 22 23 24 24 24 23 23 23 23 24 24 25 26 27 28 29 29 28 26 24 22 23 25 26 26 25 25 25 25 24 24 25 26 25 24 24 26 26 26 23 22 21 21 22 22 23 24 24 25 25 25 25 26 27
19 19 19 19 19 19 19 20 20 20 20 20 21 21 21 21 20 19 18 19 19 19 18 18 19 19 19 20 20 21 21 21 22 23 23 23 23 23 22 23 23 23 24 24 25 26 27 28 28 29 28 27 26 25 26 27 27 26 26 25 24 24 24 25 25 25 24 24 26 27 26 24 23 23 22 21 22 24 25 25 24 24 25 25 26 27
19 19 19 19 19 19 20 20 20 20 20 21 21 21 22 21 20 19 19 19 18 18 18 18 18 19 19 20 21 21 20 21 21 22 22 22 22 21 21 22 22 22 22 21 21 21 21 21 22 23 24 25 26 26 26 26 26 26 25 24 24 23 23 24 25 25 24 24 25 26 26 25 25 24 22 21 21 23 25 25 25 25 24 25 26 27
19 19 19 19 19 19 20 20 20 20 20 21 21 21 21 21 20 20 19 18 18 19 19 19 19 18 19 20 20 21 21 21 21 21 22 22 22 21 21 21 21 20 19 18 17 17 16 14 15 17 19 20 22 24 26 25 24 23 22 23 23 22 22 23 24 24 24 24 24 25 25 25 24 23 21 20 20 21 22 24 25 25 25 25 25 27
Wind_Direction
316 320 324 329 331 331 333 337 337 335 333 333 332 332 333 333 333 333 335 337 337 335 331 331 330 329 328 327 326 325 324 323 322 321 320 318 316 315 313 309 306 305 305 305 305 305 304 304 304 304 304 303 302 301 299 296 294 292 290 288 286 283 281 280 279 278 277 275 275 275 275 275 275 274 273 272 272 273 276 279 281 284 286 288 290 292
320 322 325 329 330 329 328 330 330 328 328 328 327 326 325 324 323 323 324 326 329 330 330 331 331 331 330 330 330 329 329 328 327 326 323 320 317 313 310 304 300 298 297 298 299 298 297 296 296 296 296 297 297 295 294 292 291 289 288 286 283 281 279 277 276 274 272 272 272 273 273 273 273 272 271 270 271 272 275 277 279 281 283 285 287 290
322 322 323 326 326 326 325 325 323 321 320 320 320 318 317 316 316 317 317 317 317 319 320 322 324 325 326 326 327 327 328 328 327 326 324 321 318 314 310 305 301 299 298 299 300 299 296 294 292 289 289 288 287 286 285 284 283 281 280 278 277 275 273 271 269 268 269 270 271 272 272 272 272 272 271 271 271 272 274 276 278 279 280 282 285 287
319 319 321 324 323 321 320 320 319 318 317 315 314 313 312 312 312 312 312 311 311 311 311 313 314 316 316 315 315 315 314 313 312 311 312 312 313 311 308 306 304 302 302 302 302 302 299 296 293 291 288 286 285 283 282 280 278 275 274 273 272 270 269 268 268 269 271 273 273 273 273 273 273 272 271 271 271 272 274 275 277 278 279 281 282 284
317 317 320 323 321 317 316 317 318 318 318 316 315 314 314 313 312 311 310 309 309 309 309 309 309 309 308 307 305 303 302 299 298 296 295 295 297 298 297 299 299 299 299 297 297 296 295 293 291 290 288 286 284 282 279 277 273 271 270 269 269 269 269 270 272 273 275 276 276 276 275 274 273 271 269 270 270 271 272 273 275 276 277 279 280 281
314 315 318 320 317 314 315 316 318 320 320 319 319 318 317 315 314 314 313 312 311 310 309 308 307 306 304 303 301 300 298 296 295 293 291 290 289 289 289 290 291 290 289 288 287 286 285 286 286 286 285 284 283 280 276 273 270 268 269 270 271 272 273 274 275 276 277 278 278 278 277 275 272 270 268 268 268 269 270 271 272 274 275 276 277 278
313 314 318 317 315 313 314 315 318 320 322 321 320 319 318 317 316 316 315 315 314 313 311 309 307 305 304 303 302 301 300 298 297 295 293 291 289 289 289 289 289 289 288 287 286 285 284 284 284 284 284 284 282 278 273 270 268 268 269 271 272 274 275 276 277 277 278 278 278 278 276 275 272 270 268 268 268 268 269 270 271 272 272 273 274 274
313 315 317 317 316 315 313 313 315 318 320 321 320 320 318 317 316 315 315 316 316 315 314 313 311 310 308 308 307 307 306 304 303 301 299 297 295 293 292 291 291 290 290 289 288 287 287 286 286 286 285 283 279 275 271 269 268 268 268 269 270 272 274 275 276 276 276 276 276 276 275 274 272 270 269 268 268 268 268 269 269 270 270 270 271 271
315 316 316 315 316 315 314 312 313 316 318 318 317 317 316 316 316 316 316 316 317 317 318 317 317 316 314 314 314 313 312 310 309 308 307 305 304 302 300 298 296 294 293 292 291 290 290 289 288 286 283 279 274 270 268 267 267 267 267 267 268 269 271 272 272 273 273 274 273 273 273 272 272 271 270 269 268 268 268 268 268 269 269 269 269 269
315 314 313 312 312 311 311 310 311 314 316 315 313 311 312 313 316 317 318 317 317 319 319 319 318 318 317 317 317 317 316 314 313 312 312 310 309 308 306 304 302 300 298 296 295 293 291 290 287 284 279 275 272 270 270 270 270 269 269 269 269 270 270 271 271 271 272 272 273 273 273 273 273 272 271 270 270 269 269 269 268 269 269 268 268 268
313 312 311 310 310 309 307 307 310 313 315 314 313 311 311 313 316 318 317 316 317 318 318 317 317 316 316 316 317 317 316 315 315 316 317 315 313 311 308 306 304 302 301 299 297 295 292 290 287 284 281 279 278 277 277 277 276 276 276 276 276 275 275 275 275 275 274 274 275 275 275 275 275 274 274 273 272 271 271 270 270 270 270 270 269 269
311 311 309 309 309 310 310 310 312 314 316 317 317 316 314 315 316 315 313 313 314 316 316 315 314 313 313 313 314 314 314 313 313 315 318 318 316 313 309 306 304 302 301 299 298 296 295 293 291 289 287 286 284 284 284 283 283 283 283 283 282 282 282 282 281 281 280 279 279 278 278 277 277 276 275 275 274 273 273 272 272 272 272 272 272 272
309 310 309 309 309 311 313 315 316 318 319 319 317 315 314 315 315 313 310 308 309 311 312 312 311 311 311 312 312 312 312 312 312 313 314 314 313 312 309 307 305 303 303 302 300 300 300 299 298 296 294 292 291 289 288 286 286 286 286 285 286 286 287 287 286 286 285 283 282 281 280 278 277 277 276 275 275 274 274 273 273 273 273 273 273 273
310 311 310 309 309 311 314 316 317 317 316 316 314 311 310 311 312 312 309 307 307 309 311 309 308 309 311 312 313 314 314 312 312 311 309 308 308 309 308 305 304 304 304 304 304 304 304 305 305 305 304 302 301 298 296 293 291 290 289 289 289 289 290 289 288 287 286 284 283 281 280 279 277 277 276 275 275 274 274 274 273 273 273 273 273 273
310 311 309 308 308 311 314 316 315 313 311 311 310 308 308 308 310 310 309 307 308 310 311 309 307 308 310 312 315 318 318 314 310 307 305 304 305 306 306 304 303 303 304 304 304 305 306 307 308 309 311 311 311 310 308 304 301 298 295 294 293 291 290 289 287 286 285 283 282 281 279 278 278 277 276 276 275 275 274 274 273 273 272 272 272 272
305 306 305 305 307 309 311 312 311 308 306 306 306 306 306 306 307 307 306 305 306 309 310 309 309 308 308 311 315 319 319 315 310 306 305 302 302 303 303 302 301 301 301 302 302 303 306 307 308 309 311 312 314 314 312 308 304 299 295 293 291 289 288 287 286 285 284 283 282 280 279 278 278 277 277 276 276 275 275 274 273 273 273 272 272 272
301 300 301 305 307 308 309 308 305 303 303 303 304 303 303 302 302 302 301 301 303 304 304 304 305 307 308 310 312 315 317 314 309 305 303 300 299 300 300 299 297 296 297 297 297 299 303 304 306 308 309 310 311 311 309 305 300 296 292 290 288 288 287 287 286 285 284 283 281 280 279 278 278 277 276 276 276 276 275 274 274 273 273 273 272 272
311 310 311 312 311 310 310 308 305 304 304 304 304 304 303 301 300 299 297 297 297 297 297 296 295 296 302 305 306 309 313 309 305 302 301 297 296 297 297 295 292 290 290 290 292 295 298 301 303 304 305 307 308 308 305 302 298 295 293 291 290 289 288 287 286 285 284 283 281 280 279 278 278 278 277 277 277 276 276 275 275 274 273 273 272 272
325 325 324 320 317 315 313 311 309 309 308 308 308 307 304 302 301 298 295 293 290 289 290 290 289 289 293 294 298 303 307 305 302 298 298 296 295 295 294 290 287 284 284 284 286 290 295 297 299 301 302 303 304 305 304 302 299 296 294 292 290 289 288 287 286 285 284 282 281 280 279 278 278 279 279 279 279 278 277 276 275 275 274 273 272 272
324 322 321 319 317 315 312 311 311 311 310 309 308 305 301 300 298 295 291 288 285 283 282 282 282 283 286 289 294 299 304 303 300 296 294 293 292 292 290 286 281 278 277 278 281 287 292 294 296 297 299 300 301 302 302 300 298 295 292 290 289 288 287 286 286 284 283 282 280 279 278 278 278 279 279 280 280 279 278 277 276 276 275 273 272 272
312 309 309 311 310 307 306 305 306 306 306 305 301 297 293 294 293 289 286 284 282 280 278 277 277 279 284 288 292 297 301 300 297 294 292 290 288 287 286 281 276 273 273 275 280 285 289 290 291 293 294 296 297 299 299 298 295 292 290 289 287 286 286 285 284 283 282 281 279 278 278 278 279 279 280 280 280 280 279 278 277 277 276 275 274 273
305 304 305 305 303 299 298 299 301 303 304 301 294 289 287 289 289 287 287 286 285 283 281 280 281 284 287 290 292 295 297 295 290 287 287 285 284 284 285 281 276 274 274 278 282 285 286 287 287 288 289 291 293 295 296 295 293 291 289 288 287 286 284 283 283 282 280 279 278 277 277 278 278 279 280 281 281 281 280 279 278 277 276 275 274 274
306 304 305 306 304 301 300 302 305 307 308 306 300 295 295 294 293 293 295 296 296 294 293 293 293 293 293 292 293 294 294 291 284 279 278 278 283 287 289 288 284 281 279 282 285 287 286 285 285 286 287 288 290 292 293 293 292 291 290 289 287 286 284 283 281 280 279 277 276 276 276 277 278 280 282 283 282 282 280 279 278 277 276 275 274 274
308 308 308 309 309 308 309 311 312 314 314 313 311 310 310 308 306 306 306 307 307 305 304 303 301 298 295 295 294 294 294 295 290 281 274 278 285 288 290 290 288 285 283 285 287 288 288 286 285 285 286 287 288 289 291 291 292 291 291 290 289 287 285 283 281 279 278 276 275 275 276 277 279 281 283 284 283 282 281 280 278 277 276 275 275 275
310 311 312 311 311 312 312 312 312 312 312 312 311 310 310 309 308 306 306 306 306 305 303 302 300 297 296 296 295 295 297 300 298 289 279 283 285 286 287 288 287 285 285 287 289 289 288 286 285 285 285 286 287 288 289 290 290 291 291 290 289 288 286 284 282 280 278 277 276 275 276 278 280 282 284 284 284 283 282 280 278 277 277 277 277 278
309 309 310 309 308 308 308 307 307 307 306 306 306 306 306 305 304 303 303 302 301 301 300 299 297 295 295 295 294 294 296 297 295 291 286 286 285 285 286 287 286 285 285 288 289 288 286 285 285 286 285 286 287 288 288 290 290 291 291 290 289 288 286 285 283 281 280 278 277 277 278 279 281 283 285 285 285 284 282 280 278 277 278 279 280 281
307 307 307 307 307 307 307 307 306 305 304 304 303 303 303 303 302 301 300 299 299 299 299 298 296 295 294 294 293 293 294 295 293 290 286 284 283 284 286 287 285 284 286 288 288 285 283 283 284 284 284 284 286 287 289 290 291 292 291 290 289 288 286 285 283 282 281 280 279 279 279 281 282 284 285 286 285 284 282 280 278 277 278 281 282 282
309 309 309 309 309 309 309 308 307 306 306 305 304 303 303 302 300 298 295 297 299 300 298 296 294 293 293 292 292 292 293 293 289 285 280 278 278 280 284 285 284 284 287 289 287 284 281 281 281 281 281 282 284 286 288 289 291 292 292 291 290 288 287 285 284 283 282 281 281 281 281 282 283 284 285 285 284 282 281 279 277 277 279 280 281 281
312 313 313 313 313 313 312 311 310 310 310 309 308 306 305 301 298 295 295 299 301 299 295 292 290 290 291 292 293 293 292 289 286 284 280 276 275 279 285 287 288 291 294 295 292 288 283 280 279 279 279 281 283 286 287 289 290 291 291 291 290 288 287 285 284 283 282 282 281 281 281 281 282 283 283 283 282 280 278 277 276 277 278 279 280 280
318 318 318 317 317 317 317 318 318 319 319 317 314 310 307 302 297 295 296 298 298 295 292 291 291 292 295 298 299 296 293 291 294 299 298 294 289 289 295 296 299 304 309 306 300 291 287 285 283 282 283 285 286 287 288 289 289 289 289 288 286 285 283 282 282 281 281 280 280 279 280 280 280 280 280 280 279 277 276 275 275 275 276 278 279 278
321 321 321 320 321 322 324 325 326 326 327 325 322 318 314 308 302 299 298 297 294 292 291 292 294 296 299 302 304 301 296 295 299 305 309 311 305 301 306 306 308 311 315 314 311 300 296 293 290 289 288 289 289 289 288 288 287 286 285 284 283 281 280 280 280 280 279 279 278 278 278 278 278 277 277 276 275 274 273 272 272 273 274 275 276 276
322 321 321 322 324 325 327 327 328 328 327 326 325 323 319 314 309 304 299 295 292 290 290 291 291 291 291 289 286 284 284 286 288 295 308 316 313 308 309 307 306 306 306 303 297 293 297 295 293 293 292 291 290 289 287 286 285 284 283 282 281 280 280 280 280 279 279 278 278 277 277 276 276 275 275 274 273 272 271 270 270 270 271 272 272 272
322 322 322 324 326 327 327 326 326 325 324 323 321 319 317 314 310 305 300 296 293 291 290 289 289 288 286 283 280 278 278 279 283 296 313 318 314 307 304 302 301 301 300 297 293 289 288 288 292 293 293 292 290 288 287 286 285 284 283 281 281 280 281 281 280 279 278 278 277 277 276 276 275 275 274 273 272 271 270 269 269 269 269 269 270 271
323 322 323 324 325 325 325 325 324 322 321 319 317 315 313 311 308 305 302 300 297 295 293 291 290 290 290 289 287 284 282 283 289 298 308 310 305 301 300 298 297 297 298 296 293 291 288 287 289 291 293 292 290 289 288 287 286 286 285 283 281 281 281 281 280 278 278 277 277 277 277 276 276 275 273 272 271 270 270 269 269 268 268 268 269 271
322 321 321 322 323 323 322 322 321 319 317 316 314 313 312 311 310 308 306 304 302 299 296 293 290 289 289 290 290 288 286 286 289 294 298 298 297 296 296 293 292 293 294 292 291 290 288 287 287 289 291 292 291 289 288 287 287 287 286 285 284 283 283 283 283 282 282 281 280 278 278 277 277 275 274 272 272 271 271 271 270 270 269 269 269 269
319 318 319 320 321 320 319 319 318 318 317 317 316 316 315 313 312 310 307 305 303 300 297 294 290 287 285 283 282 283 284 286 289 291 292 291 291 291 290 288 288 289 289 288 288 287 287 288 288 288 288 289 289 290 289 289 288 287 286 285 285 285 285 285 286 286 286 285 283 281 280 279 277 276 275 274 273 273 273 272 272 272 271 270 269 267
317 317 318 320 320 320 319 318 318 318 318 318 317 316 314 312 310 308 306 305 303 301 298 296 293 290 286 282 280 279 281 285 288 289 289 288 287 285 284 283 284 285 284 284 285 286 286 287 287 287 285 284 285 287 290 291 290 288 286 285 284 283 283 284 284 283 283 282 281 280 279 277 276 275 274 274 274 274 273 273 273 272 271 270 269 267
317 317 319 320 320 320 319 318 318 317 317 316 314 312 310 308 307 306 305 305 304 303 301 299 297 295 292 289 286 285 285 286 288 289 290 288 286 282 279 280 281 281 280 280 280 281 281 282 283 283 283 282 282 283 286 289 289 287 286 285 284 283 283 282 281 280 278 277 276 275 275 274 273 272 272 272 272 272 272 271 271 271 270 269 267 266
318 318 318 319 319 318 317 316 314 313 311 309 308 307 307 307 306 305 305 305 304 304 303 301 300 298 297 295 294 291 290 290 290 291 291 290 287 283 279 278 279 280 279 277 273 271 271 271 272 274 279 282 283 284 285 285 285 286 287 288 286 284 282 281 280 279 277 276 274 273 273 272 272 271 270 270 269 269 268 268 268 268 267 266 266 265
317 316 315 316 315 314 313 311 309 308 308 307 307 307 307 307 306 306 306 305 305 304 303 303 302 300 299 297 295 294 293 293 293 293 292 291 289 286 282 279 279 280 280 278 273 269 268 269 271 273 276 279 282 284 286 285 284 285 287 289 287 285 284 283 282 280 279 277 274 273 272 272 271 270 269 268 267 266 265 266 265 265 264 263 262 262
315 314 313 313 313 312 310 309 308 307 308 308 307 307 307 307 308 308 307 307 307 306 306 306 305 303 301 299 297 296 295 294 293 292 290 290 289 288 285 281 280 281 282 282 281 279 276 275 276 277 278 280 282 284 284 284 284 285 286 286 285 285 286 285 283 280 278 276 274 272 272 271 270 270 269 268 267 265 264 263 263 263 262 261 259 257
313 311 310 311 310 309 308 308 309 309 308 307 306 306 307 307 308 308 308 308 308 308 309 309 308 307 304 302 301 299 296 294 293 292 292 291 290 289 287 284 282 281 282 283 283 281 278 277 277 278 279 281 283 284 284 284 285 285 284 283 284 286 287 285 281 279 276 274 272 271 271 270 269 269 268 268 267 266 265 263 262 261 260 259 257 255
310 308 308 308 308 309 309 310 310 310 309 308 307 306 306 307 306 306 306 306 306 307 308 308 308 306 304 303 303 302 301 299 298 297 296 295 294 292 289 287 285 284 282 281 280 279 279 277 275 275 277 279 280 281 282 284 285 285 283 282 283 284 285 284 283 281 278 275 274 272 272 271 270 270 269 268 267 266 265 263 262 260 258 255 254 254
307 307 307 308 308 309 310 310 309 309 309 308 306 305 306 306 305 304 303 303 303 304 305 305 305 303 300 300 301 303 304 303 302 301 299 297 295 293 290 288 286 284 282 279 279 280 282 280 278 276 276 277 277 277 278 280 282 282 282 280 278 276 275 278 281 282 281 278 276 274 272 271 271 271 269 268 267 265 263 262 260 258 256 254 253 253
306 307 307 308 309 310 309 309 309 308 308 306 304 304 305 306 305 303 301 300 300 301 302 303 303 301 299 299 301 303 304 305 304 303 301 300 296 292 289 287 286 284 281 278 276 277 278 279 279 279 279 276 274 272 273 275 277 279 279 278 276 273 272 274 276 278 278 277 276 275 274 273 272 271 269 267 265 264 262 260 258 257 255 254 252 251
306 306 307 308 309 309 308 308 307 306 306 305 305 304 305 305 305 303 300 299 299 299 301 301 300 298 296 298 300 302 303 304 305 304 303 301 299 296 293 289 286 284 281 278 275 273 272 273 275 277 278 277 274 271 270 271 273 275 275 275 275 273 273 273 273 273 273 274 275 275 275 275 273 271 268 267 266 265 263 259 256 255 254 252 251 250
307 308 308 308 308 307 307 307 306 305 304 304 304 305 305 306 305 303 302 301 299 299 299 300 297 294 292 293 296 298 299 301 302 303 303 302 300 298 296 293 290 287 283 279 276 273 271 270 269 270 272 273 274 274 273 271 270 270 271 273 273 273 272 272 272 271 271 272 272 273 275 275 274 270 268 268 268 268 266 262 259 255 252 250 249 248
308 308 307 306 306 305 305 305 305 304 304 304 304 305 306 306 305 303 302 301 300 299 299 298 296 294 291 291 292 293 294 295 297 298 299 300 300 299 297 296 294 291 287 283 279 276 273 271 268 266 263 264 267 271 272 272 270 268 268 270 271 271 270 271 272 272 271 270 270 271 272 272 271 270 270 271 271 270 269 266 263 258 254 250 249 248
307 306 306 305 304 304 303 304 304 304 303 303 304 305 306 305 305 303 301 300 299 298 296 295 294 293 291 291 291 292 292 292 293 294 295 296 297 298 298 297 296 294 292 289 285 282 279 276 271 266 261 257 257 262 267 269 269 268 268 268 268 268 269 271 272 272 270 269 269 270 269 267 266 266 268 269 270 271 271 270 267 263 258 255 252 250
307 306 305 304 303 302 302 302 303 303 303 303 303 304 305 306 305 304 301 300 298 296 293 291 291 290 290 291 291 292 291 292 291 292 292 294 295 296 297 298 298 298 296 294 291 289 287 284 279 273 266 257 253 253 257 263 267 268 268 267 266 266 267 269 271 271 270 269 269 269 268 266 264 263 263 263 266 268 270 270 268 265 262 258 256 254
307 306 305 304 302 301 301 302 302 301 301 301 302 303 304 304 305 305 303 300 298 296 293 291 288 287 287 289 290 290 290 290 290 289 291 293 295 296 296 296 297 297 297 297 297 297 297 295 291 286 280 269 257 250 250 255 261 265 267 267 267 266 266 268 270 271 269 268 268 268 267 265 263 260 258 258 261 265 268 269 268 266 264 260 257 255
Height
773 772 772 772 771 770 769 769 768 767 766 765 764 764 763 762 762 761 760 759 758 757 756 755 755 754 753 752 752 751 750 749 749 749 748 748 748 748 748 748 748 748 748 748 748 747 747 747 746 745 745 744 744 744 744 745 744 744 744 743 744 744 745 747 748 749 749 748 747 745 744 744 743 743 743 743 742 741 741 740 739 739 739 738 739 739
772 772 771 771 771 770 769 768 768 767 766 765 764 763 762 761 761 760 759 759 758 757 756 755 754 753 752 752 751 750 749 749 749 748 747 747 746 746 746 746 746 746 746 746 746 746 745 745 744 744 744 743 743 743 743 743 743 743 742 742 742 743 744 745 746 746 746 745 744 743 742 741 741 740 740 740 740 740 739 739 738 737 737 737 737 737
771 771 770 770 770 769 769 768 767 766 766 764 764 763 762 761 760 759 758 757 757 756 755 755 754 753 752 751 750 750 749 749 748 748 747 746 746 745 745 745 745 744 744 744 744 743 743 743 742 742 742 742 742 742 742 742 742 741 741 741 742 742 743 743 744 744 744 742 741 740 739 739 738 738 738 738 738 738 737 737 736 736 735 735 735 736
771 770 770 769 769 769 768 767 766 765 765 764 763 762 762 760 759 758 757 757 756 755 754 754 753 752 751 751 750 749 749 748 748 747 747 746 745 745 744 744 744 743 743 742 742 741 741 741 741 740 740 740 740 740 740 741 740 740 740 740 740 740 741 741 741 741 740 739 739 738 737 736 736 736 736 736 736 736 736 735 735 734 734 734 734 734
771 771 769 769 769 768 767 767 766 765 764 763 762 761 760 760 759 758 756 756 755 754 753 753 752 751 750 750 749 748 748 747 746 746 745 745 744 744 744 743 743 743 742 742 741 741 740 740 740 739 739 739 739 739 739 739 739 739 738 738 738 738 738 739 739 738 738 737 736 735 735 734 734 734 734 734 734 734 734 734 733 733 733 733 732 732
771 770 769 769 768 767 766 766 765 764 763 762 761 760 759 759 758 757 755 754 754 753 752 751 751 750 749 749 748 747 746 746 745 744 744 744 743 743 742 742 741 741 741 740 740 740 739 739 739 738 738 738 738 738 738 738 738 737 737 736 736 736 736 736 736 735 735 734 734 734 733 733 732 732 731 731 732 732 732 732 732 732 731 731 731 731
770 770 769 769 768 767 766 765 764 764 763 761 760 759 759 758 757 756 755 754 753 752 751 750 749 749 748 747 746 746 745 744 743 743 742 742 742 741 741 740 740 739 739 739 738 738 738 737 737 737 736 736 736 736 736 736 736 736 735 734 734 734 734 734 733 733 733 732 732 731 731 731 730 729 729 729 729 730 730 730 730 730 729 729 729 729
769 769 769 768 767 766 765 764 764 764 763 761 760 759 757 756 756 755 754 753 752 751 750 749 748 747 747 746 745 744 743 742 741 741 740 740 739 739 739 738 738 738 737 737 737 736 736 735 735 735 735 735 735 735 734 734 734 734 733 732 732 732 731 731 731 731 730 730 729 729 729 729 728 728 727 727 727 728 728 728 728 728 728 727 727 727
769 768 768 768 767 766 764 763 763 763 763 762 760 759 757 755 754 753 753 752 751 751 749 748 747 745 745 744 744 743 742 741 740 739 739 738 738 737 737 736 736 736 735 735 735 734 734 734 734 734 733 733 733 733 732 732 732 731 731 730 729 729 729 729 729 728 728 728 727 727 727 726 726 725 725 725 725 726 726 726 726 726 725 725 725 725
769 768 767 767 766 766 765 763 762 762 762 761 760 759 758 756 754 752 751 751 750 750 749 748 747 745 744 743 743 742 741 740 739 739 738 737 736 736 735 735 734 734 734 733 733 733 732 732 732 731 731 731 731 730 730 730 729 729 728 728 727 727 727 727 726 726 726 725 725 724 724 724 724 723 723 723 724 724 724 724 724 723 723 723 723 723
769 768 767 766 765 765 765 764 762 762 761 760 759 759 758 757 755 753 751 750 749 749 748 748 747 745 744 742 741 741 740 739 737 737 736 736 735 735 734 734 733 733 732 732 731 731 730 730 730 729 729 729 729 728 728 728 727 727 726 726 725 725 724 724 724 724 723 723 723 722 722 722 721 721 721 721 722 722 722 721 721 721 721 721 721 720
768 767 767 766 765 764 764 763 762 761 761 760 759 757 757 756 756 754 753 750 749 748 747 746 746 745 744 742 741 739 739 738 736 735 734 734 734 733 733 732 732 731 731 730 730 729 729 729 728 728 728 727 727 726 726 725 725 724 724 724 723 723 722 722 722 721 721 721 720 720 719 719 719 719 719 719 719 719 719 719 719 719 719 719 719 718
768 767 766 765 764 764 763 762 761 761 760 759 759 757 756 755 755 754 753 751 749 749 747 745 744 744 743 743 741 739 738 737 735 734 734 733 733 732 732 731 730 730 729 729 728 728 728 727 726 726 726 725 725 724 724 723 723 722 722 721 721 720 720 719 719 719 719 718 718 718 717 717 717 717 717 717 717 717 717 717 717 717 717 716 716 716
767 767 766 765 764 764 763 762 761 760 760 759 759 757 756 755 754 754 752 750 749 748 747 745 744 743 742 741 741 739 738 736 735 734 733 732 732 732 731 730 729 729 728 727 726 726 726 725 724 724 724 723 723 722 722 721 720 720 719 719 718 718 718 717 717 717 716 716 716 715 715 715 715 715 715 715 715 714 714 714 714 714 714 714 714 714
767 766 765 764 764 763 763 762 761 760 759 759 758 757 755 754 754 753 752 749 748 747 746 744 743 741 741 740 740 739 738 736 734 733 732 731 731 731 730 729 728 727 727 726 725 724 724 724 723 722 722 721 720 720 719 719 718 717 717 717 716 716 716 715 715 714 714 714 714 713 713 713 713 713 713 712 712 712 712 712 712 712 712 712 711 711
766 766 765 764 763 762 762 762 761 760 759 758 757 756 755 754 753 752 751 749 747 746 745 743 741 739 739 739 739 739 738 736 734 733 732 730 729 730 730 728 726 725 725 724 724 723 722 722 721 721 720 719 719 718 718 717 716 716 715 715 714 714 714 714 713 713 712 712 712 711 711 711 711 710 710 710 710 710 710 710 710 710 709 709 709 709
765 765 764 763 762 761 761 761 760 759 758 757 756 755 754 753 752 751 750 749 747 745 744 743 741 739 736 736 737 738 738 736 734 733 731 729 728 729 729 728 726 724 724 723 722 721 721 720 720 719 719 718 717 717 716 715 715 714 714 713 713 712 712 711 711 711 710 710 709 709 709 709 709 709 709 708 708 708 708 708 708 708 707 707 707 707
765 764 764 763 762 761 760 760 759 758 757 756 755 754 753 753 752 751 749 748 747 745 743 742 741 739 737 735 734 735 737 735 733 731 730 728 727 727 728 727 725 723 722 721 720 720 719 719 718 717 717 716 716 715 714 714 713 712 712 711 711 710 710 709 709 709 708 708 708 707 707 707 707 707 707 706 706 706 706 706 706 705 705 705 705 704
765 764 764 763 762 761 760 759 759 758 757 756 754 753 752 751 751 750 749 747 746 745 743 741 740 739 738 735 734 734 735 734 733 730 729 727 725 725 726 725 724 722 720 719 719 719 718 717 716 716 715 714 714 713 712 712 711 710 710 709 709 709 708 708 707 707 706 706 706 706 705 705 705 705 705 704 704 704 704 704 704 703 703 703 702 702
765 764 764 763 762 760 759 759 758 758 757 755 754 753 751 750 749 748 747 745 744 743 742 741 739 737 736 734 733 733 734 733 732 729 728 726 723 723 724 724 722 719 719 718 717 717 716 715 714 714 713 712 712 711 710 709 709 708 708 707 707 706 706 706 705 705 705 704 704 704 704 704 703 703 703 703 702 702 702 702 701 701 700 700 700 700
764 764 763 763 762 760 759 758 757 757 756 754 753 751 750 749 747 746 744 743 742 741 740 739 737 735 734 733 732 731 732 732 731 728 726 724 721 720 721 721 720 718 717 716 716 715 715 714 713 712 711 710 709 709 708 707 706 706 705 705 705 704 704 704 703 703 703 703 702 702 702 702 701 701 701 701 700 700 700 699 699 699 698 698 698 697
764 762 762 761 761 759 758 756 756 755 754 753 752 750 748 747 745 743 742 741 740 739 738 737 735 734 733 732 730 730 731 731 730 728 725 722 719 718 719 719 718 716 715 714 714 714 713 712 711 710 709 709 708 707 706 705 704 704 703 703 702 702 702 701 701 701 701 700 700 700 700 700 699 699 699 699 698 698 698 697 697 696 696 696 695 695
763 762 761 760 759 758 757 755 754 754 753 752 751 749 748 746 744 743 741 741 739 738 737 735 734 733 732 730 729 728 729 729 728 726 724 721 718 717 718 718 717 715 714 713 713 712 711 710 709 708 707 706 706 705 704 703 702 702 701 700 700 700 699 699 699 699 699 699 698 698 698 698 697 697 697 697 696 696 695 695 694 694 694 694 693 693
762 761 760 759 758 757 756 755 754 753 752 751 750 749 747 746 744 743 741 740 739 738 736 734 733 731 730 729 728 727 726 727 726 725 723 720 718 716 717 717 716 713 711 711 711 710 708 707 707 706 705 704 704 703 702 701 700 700 699 699 698 698 697 697 697 697 697 696 696 696 696 696 695 695 695 694 694 694 693 693 692 692 692 691 691 690
760 759 759 758 757 756 755 754 753 752 751 750 749 747 746 745 744 742 741 740 739 737 735 734 732 730 728 728 727 726 725 726 726 724 723 720 717 715 715 716 714 712 709 709 709 709 706 705 704 704 703 702 701 701 700 699 699 698 698 697 696 696 695 695 695 695 694 694 694 694 694 694 694 693 693 692 692 692 691 691 690 690 689 689 689 688
759 758 757 756 756 755 754 753 752 751 750 749 748 746 745 743 742 740 739 738 737 736 734 733 731 729 727 726 725 725 725 725 725 724 723 720 716 713 713 714 713 710 707 707 707 707 704 703 702 701 701 699 699 699 698 698 697 696 696 695 695 694 694 693 693 693 693 693 692 692 692 692 691 691 691 690 690 689 689 689 688 688 687 687 687 686
757 756 756 755 754 753 752 751 750 749 748 747 746 745 744 742 740 739 738 737 736 735 734 733 730 728 726 726 725 724 724 724 724 723 722 719 715 712 711 712 711 709 706 706 705 704 703 701 700 699 699 697 697 697 696 695 695 694 694 693 693 692 692 692 691 691 691 691 690 690 690 689 689 689 689 688 688 687 687 686 686 686 685 685 684 684
755 754 754 753 752 751 750 749 748 747 746 745 744 744 743 741 740 738 737 736 736 735 734 733 730 728 726 724 724 723 722 722 722 721 720 718 715 712 710 710 709 708 706 704 703 701 700 699 698 697 696 696 695 694 694 693 693 692 692 691 691 690 690 690 689 689 689 689 688 688 688 687 687 687 686 686 685 685 684 684 684 684 683 683 682 681
753 752 751 750 749 749 748 746 745 744 744 743 742 741 741 740 739 738 736 736 735 734 733 732 730 728 726 724 722 721 721 720 719 719 718 716 714 711 710 709 708 707 706 704 701 699 698 697 696 695 694 694 694 693 692 692 691 691 690 689 689 688 688 687 687 687 686 686 686 686 685 685 684 684 684 683 683 683 682 682 682 681 681 680 679 679
750 749 748 748 747 746 745 744 743 742 741 741 740 740 739 739 738 737 736 735 735 734 732 731 729 728 726 724 721 719 718 718 718 717 717 715 713 711 710 709 708 707 707 704 701 697 695 694 694 694 693 693 692 691 691 690 689 689 688 688 687 686 685 685 685 684 684 684 684 683 683 682 682 681 681 681 680 680 679 679 679 679 678 678 677 676
748 747 746 745 744 744 743 742 741 740 740 739 739 738 738 737 736 736 735 734 734 733 732 730 729 728 726 725 723 720 718 717 717 717 716 715 713 711 710 709 707 707 707 706 703 698 694 692 692 692 692 691 691 690 689 689 688 688 687 686 684 684 683 683 683 682 681 681 681 680 680 679 679 679 678 678 678 677 677 677 677 677 676 675 674 674
747 746 745 744 743 742 741 740 739 739 738 738 737 737 736 736 735 734 734 734 733 732 731 730 729 727 726 725 724 721 718 717 716 716 716 714 712 711 710 709 708 707 707 706 705 701 697 692 689 689 690 689 689 688 687 687 686 685 685 684 682 681 681 681 680 679 679 678 678 677 677 676 676 676 675 675 675 675 674 674 674 674 674 673 672 671
746 745 744 743 742 741 740 739 738 738 737 736 736 735 735 734 734 734 733 733 732 731 730 729 728 726 725 724 722 720 717 716 715 715 715 714 712 710 709 709 707 706 705 704 704 702 699 694 690 688 687 687 687 686 685 684 684 683 683 682 680 679 679 679 678 677 676 675 675 674 674 673 673 673 673 673 672 672 672 672 672 672 671 671 670 669
745 744 743 742 741 739 739 738 737 736 736 735 734 734 733 733 733 732 732 731 731 730 729 728 727 725 724 722 719 717 715 714 714 714 715 714 712 710 709 708 707 705 704 703 702 700 698 694 692 689 686 684 684 684 683 682 682 681 681 680 679 677 676 676 675 674 674 673 672 671 671 670 670 670 670 670 669 669 669 669 669 669 669 669 668 667
744 743 742 741 740 739 738 737 736 735 735 734 733 733 732 732 731 731 730 730 729 729 728 727 726 725 723 722 719 716 714 713 713 714 714 714 712 710 708 707 706 705 704 702 700 699 696 693 691 689 687 683 681 680 681 680 680 679 679 678 677 675 674 674 674 673 672 671 670 669 669 668 668 668 667 667 667 667 666 666 666 666 666 666 666 665
744 743 742 740 739 738 737 736 735 734 734 733 732 732 731 730 730 729 729 728 727 727 726 725 724 723 722 721 719 716 713 712 712 712 713 712 711 710 708 705 704 704 703 701 699 698 695 692 690 688 687 683 680 677 677 678 678 677 676 675 674 674 673 672 672 671 670 669 668 667 666 666 665 665 664 664 664 664 664 663 663 663 663 663 663 663
744 742 741 740 739 738 737 736 734 734 733 732 731 730 730 729 728 727 726 726 725 724 723 722 721 720 719 718 717 715 713 711 710 710 710 710 710 709 707 704 703 703 702 700 698 696 694 692 689 686 684 682 679 677 675 674 675 674 673 673 672 671 670 670 670 669 668 667 666 665 664 664 663 662 662 662 661 661 660 660 660 660 659 659 659 659
743 742 741 740 739 738 737 735 734 733 732 731 730 729 729 727 726 725 724 723 722 721 720 719 718 717 716 715 714 713 711 710 709 708 708 708 707 706 705 703 701 700 700 699 697 695 694 691 688 685 682 679 677 676 674 674 673 671 670 670 669 669 668 667 667 666 665 664 663 662 661 660 660 659 659 659 659 658 657 656 656 656 656 656 656 655
743 742 740 739 739 738 737 735 734 733 732 731 729 728 727 726 724 724 722 721 720 719 718 717 716 714 713 712 711 710 709 708 707 706 705 705 705 704 703 701 699 698 697 696 695 694 692 689 687 684 681 678 675 673 672 672 671 670 669 667 666 665 665 664 664 663 662 661 660 659 658 658 657 657 656 656 655 655 654 653 653 653 653 653 652 652
743 741 740 739 738 737 736 735 734 732 731 729 728 727 726 724 723 721 720 719 718 717 716 715 714 712 710 709 708 707 706 705 705 704 704 703 702 702 701 699 698 696 695 694 693 691 689 687 684 682 680 677 674 672 670 669 669 669 668 666 664 662 661 662 662 661 660 659 658 657 656 655 654 654 653 653 652 652 651 651 650 650 650 650 650 649
742 741 740 739 738 737 736 734 733 731 730 729 727 725 724 723 722 720 719 717 716 715 714 714 712 710 708 707 706 705 705 704 703 702 701 701 700 699 699 697 696 694 693 692 690 689 688 686 684 681 679 677 674 672 670 668 668 668 668 666 663 660 659 659 659 659 658 657 655 654 654 653 652 651 650 650 649 649 648 648 648 647 647 647 647 647
742 741 739 738 737 735 734 733 732 730 729 728 726 725 724 722 721 719 718 716 715 714 713 712 711 709 706 704 704 703 703 702 701 700 699 699 698 697 696 695 694 693 692 690 689 687 686 684 683 680 678 677 675 672 669 667 666 667 666 665 662 660 658 656 656 656 656 654 653 652 651 651 649 648 647 647 646 645 645 645 645 645 644 644 644 644
742 740 739 737 736 734 733 732 731 729 728 727 725 724 723 722 721 719 718 716 714 713 712 711 710 708 706 703 701 700 700 699 699 698 697 696 696 695 694 693 692 691 690 689 687 685 683 682 681 679 677 676 674 672 669 666 664 664 664 663 662 660 656 653 652 653 653 652 650 649 649 648 647 646 645 644 643 643 643 642 642 642 642 641 641 641
741 739 738 737 735 734 733 731 730 729 727 726 724 723 722 721 720 719 717 716 714 713 712 710 709 707 705 703 700 698 697 697 696 696 695 694 694 693 692 691 690 689 689 687 685 683 681 679 678 677 675 674 673 670 668 665 663 662 661 660 660 659 655 652 650 650 650 649 648 647 646 645 644 643 642 641 640 640 640 639 639 639 639 639 638 638
740 739 737 736 734 733 732 730 729 728 726 725 724 722 721 720 719 718 717 715 713 712 711 710 709 706 704 701 699 698 696 694 694 693 693 692 692 691 690 689 688 687 686 685 684 682 680 678 675 674 673 672 670 668 666 663 661 659 658 657 656 655 653 650 649 649 648 646 645 644 643 643 642 641 639 638 637 636 636 636 636 635 635 635 635 635
739 738 736 735 734 732 731 729 728 727 725 724 722 721 720 719 718 717 715 714 713 711 710 709 708 706 704 701 699 697 695 693 692 691 690 690 689 688 688 687 686 684 684 682 681 679 678 676 674 672 671 669 667 665 663 661 660 657 655 654 653 652 649 648 647 646 645 644 643 641 641 641 640 639 637 635 634 633 633 632 632 632 632 632 632 632
738 737 735 734 733 731 730 728 727 725 724 722 721 720 719 718 717 715 714 713 712 710 709 708 706 705 703 701 699 697 695 693 690 689 688 687 686 685 685 684 683 682 680 679 678 676 675 673 672 671 669 668 665 662 660 659 657 655 653 651 650 649 647 645 644 643 643 642 641 639 639 639 638 636 634 633 631 630 629 629 629 628 628 628 628 628
737 736 734 733 731 730 729 727 726 724 723 721 720 719 717 717 716 714 713 712 711 709 708 706 705 703 701 699 698 697 695 693 690 688 686 685 684 683 682 681 680 679 677 676 674 673 671 670 669 668 667 666 663 660 657 655 654 653 650 649 648 646 644 642 641 640 640 639 638 637 637 637 636 634 632 631 629 627 626 625 625 624 624 624 624 624
737 735 734 732 730 729 727 726 725 723 722 720 719 717 716 715 714 714 712 711 709 708 707 705 704 702 700 698 696 695 694 692 690 687 685 684 682 681 680 679 678 676 674 673 671 669 668 666 664 664 663 662 661 658 655 652 650 649 648 647 645 644 642 639 638 638 638 636 635 635 634 634 633 632 631 629 627 624 623 622 621 621 621 621 621 621
735 734 733 731 730 728 726 725 724 722 721 719 718 716 714 714 713 712 711 710 708 707 705 704 702 700 698 696 694 693 692 690 688 686 684 683 681 680 678 677 676 674 672 670 669 667 665 662 660 659 658 658 657 656 653 650 648 646 645 644 643 641 640 638 636 635 634 634 633 632 631 631 630 629 629 627 624 622 620 619 618 618 618 618 618 618
734 733 732 730 729 727 725 724 723 721 720 718 717 715 714 712 711 710 709 708 707 705 704 702 701 699 697 695 693 691 690 689 686 684 682 681 680 679 677 676 675 673 671 669 667 664 663 660 657 655 654 654 654 653 651 648 646 644 643 641 640 639 638 636 634 633 632 631 630 629 629 628 627 626 626 624 622 620 618 615 614 614 614 614 615 614